DW2659 Weather Reports


time (UTC)temp
C
wind
direction
speed
KPH
gust
KPH
rain 1hr
cm
rain 24hr
cm
rain mn
cm
humidity
%
barometer
mb
20260904011403 26 355 0.0 1.6 0.00 0.00 0.00 76 1015.7
20260904010903 26 355 0.0 0.0 0.00 0.00 0.00 75 1015.7
20260904010405 26 355 0.0 0.0 0.00 0.00 0.00 75 1015.7
20260904005904 26 355 0.0 0.0 0.00 0.00 0.00 74 1015.2
20260904005403 26 355 0.0 0.0 0.00 0.00 0.00 74 1015.2
20260904004905 26 355 0.0 0.0 0.00 0.00 0.00 74 1015.2
20260904004403 27 355 1.6 1.6 0.00 0.00 0.00 73 1014.9
20260904003904 27 355 0.0 1.6 0.00 0.00 0.00 73 1014.9
20260904002903 27 355 0.0 1.6 0.00 0.00 0.00 73 1014.9
20260904002403 27 355 0.0 1.6 0.00 0.00 0.00 73 1014.9
20260904001904 27 281 0.0 3.2 0.00 0.00 0.00 72 1014.9
20260904000903 28 245 0.0 1.6 0.00 0.00 0.00 71 1014.8
20260903235903 28 245 0.0 0.0 0.00 0.00 0.00 70 1014.5
20260903235403 28 245 0.0 0.0 0.00 0.00 0.00 70 1014.5
20260903233903 28 245 0.0 0.0 0.00 0.00 0.00 69 1014.5
20260903233405 28 245 0.0 0.0 0.00 0.00 0.00 68 1014.5
20260903232904 29 245 0.0 0.0 0.00 0.00 0.00 68 1014.5
20260903232403 29 245 0.0 0.0 0.00 0.00 0.00 69 1014.5
20260903231905 29 245 0.0 0.0 0.00 0.00 0.00 68 1014.5
20260903230903 29 245 0.0 0.0 0.00 0.00 0.00 68 1014.6
20260903230405 29 245 0.0 0.0 0.00 0.00 0.00 68 1014.6
20260903225903 30 245 0.0 0.0 0.00 0.00 0.00 67 1014.6
20260903225403 30 245 0.0 0.0 0.00 0.00 0.00 68 1014.6
20260903224905 30 245 0.0 0.0 0.00 0.00 0.00 68 1014.6
20260903224403 30 245 0.0 0.0 0.00 0.00 0.00 69 1014.7
20260903223903 30 245 0.0 0.0 0.00 0.00 0.00 67 1014.7
20260903223405 30 245 0.0 0.0 0.00 0.00 0.00 67 1014.7
20260903222903 30 245 0.0 1.6 0.00 0.00 0.00 67 1014.7
20260903222404 31 245 1.6 3.2 0.00 0.00 0.00 66 1014.7
20260903221404 31 245 0.0 1.6 0.00 0.00 0.00 65 1014.5
20260903220404 31 245 0.0 3.2 0.00 0.00 0.00 66 1014.5
20260903215905 32 245 0.0 3.2 0.00 0.00 0.00 67 1014.5
20260903214904 32 242 3.2 4.8 0.00 0.00 0.00 65 1014.5
20260903214404 32 274 0.0 1.6 0.00 0.00 0.00 63 1014.7
20260903213903 33 274 1.6 3.2 0.00 0.00 0.00 63 1014.7
20260903213404 34 274 0.0 3.2 0.00 0.00 0.00 55 1014.8
20260903212904 35 169 3.2 8.0 0.00 0.00 0.00 50 1014.8
20260903212404 35 85 3.2 4.8 0.00 0.00 0.00 49 1014.8
20260903211904 36 5 1.6 4.8 0.00 0.00 0.00 51 1014.8
20260903211405 36 5 3.2 9.7 0.00 0.00 0.00 48 1014.8
20260903210903 36 27 1.6 4.8 0.00 0.00 0.00 51 1014.8
20260903210404 37 30 0.0 1.6 0.00 0.00 0.00 49 1015.0
20260903205904 37 30 1.6 3.2 0.00 0.00 0.00 48 1014.8
20260903205404 38 30 0.0 1.6 0.00 0.00 0.00 46 1014.8
20260903204903 38 34 1.6 3.2 0.00 0.00 0.00 42 1014.8
20260903204404 37 0 3.2 4.8 0.00 0.00 0.00 40 1015.2
20260903203903 38 126 4.8 11.3 0.00 0.00 0.00 40 1015.2
20260903203404 38 46 0.0 3.2 0.00 0.00 0.00 43 1015.2
20260903202905 38 46 1.6 3.2 0.00 0.00 0.00 41 1015.2
20260903202404 38 129 1.6 8.0 0.00 0.00 0.00 41 1015.2
20260903201903 38 355 3.2 4.8 0.00 0.00 0.00 45 1015.2
20260903201406 38 17 1.6 3.2 0.00 0.00 0.00 43 1015.3
20260903200903 38 63 1.6 8.0 0.00 0.00 0.00 44 1015.3
20260903195404 37 98 1.6 4.8 0.00 0.00 0.00 46 1015.6
20260903194904 37 355 1.6 3.2 0.00 0.00 0.00 46 1015.6
20260903194404 36 49 0.0 3.2 0.00 0.00 0.00 49 1016.2
20260903193904 36 146 1.6 3.2 0.00 0.00 0.00 45 1016.2
20260903193404 36 78 1.6 4.8 0.00 0.00 0.00 47 1016.2
20260903192904 36 55 1.6 4.8 0.00 0.00 0.00 47 1016.2
20260903192405 36 49 1.6 4.8 0.00 0.00 0.00 48 1016.2
20260903191403 36 28 3.2 4.8 0.00 0.00 0.00 52 1016.2
20260903190905 35 44 1.6 3.2 0.00 0.00 0.00 50 1016.2
20260903190404 36 44 1.6 3.2 0.00 0.00 0.00 49 1016.2
20260903185904 36 51 1.6 4.8 0.00 0.00 0.00 47 1016.2
20260903185404 37 68 3.2 8.0 0.00 0.00 0.00 47 1016.2
20260903184404 37 333 1.6 4.8 0.00 0.00 0.00 45 1016.4
20260903183403 37 30 1.6 4.8 0.00 0.00 0.00 44 1016.4
20260903182904 38 267 4.8 8.0 0.00 0.00 0.00 42 1016.7
20260903181403 37 17 1.6 4.8 0.00 0.00 0.00 45 1016.7
20260903180905 36 41 1.6 4.8 0.00 0.00 0.00 46 1016.7
20260903180404 36 5 1.6 8.0 0.00 0.00 0.00 46 1016.8
20260903175904 37 244 4.8 8.0 0.00 0.00 0.00 45 1016.8
20260903175405 36 22 3.2 4.8 0.00 0.00 0.00 46 1016.8
20260903174904 36 291 1.6 4.8 0.00 0.00 0.00 47 1016.8
20260903174403 36 31 3.2 11.3 0.00 0.00 0.00 49 1017.1
20260903173905 36 19 1.6 4.8 0.00 0.00 0.00 51 1017.1
20260903173403 36 221 1.6 4.8 0.00 0.00 0.00 50 1017.1
20260903172904 36 247 1.6 4.8 0.00 0.00 0.00 47 1017.2
20260903172405 36 11 1.6 4.8 0.00 0.00 0.00 50 1017.3
20260903171904 36 331 0.0 4.8 0.00 0.00 0.00 49 1017.3
20260903171404 36 42 1.6 4.8 0.00 0.00 0.00 51 1017.6
20260903170404 36 155 1.6 4.8 0.00 0.00 0.00 48 1017.6
20260903165903 35 163 3.2 4.8 0.00 0.00 0.00 46 1017.7
20260903164904 35 87 1.6 4.8 0.00 0.00 0.00 49 1017.7
20260903164404 35 40 1.6 4.8 0.00 0.00 0.00 51 1018.0
20260903163905 35 318 1.6 4.8 0.00 0.00 0.00 53 1018.0
20260903163404 35 132 3.2 4.8 0.00 0.00 0.00 52 1018.0
20260903162904 35 72 3.2 4.8 0.00 0.00 0.00 54 1018.0
20260903162406 34 148 0.0 4.8 0.00 0.00 0.00 54 1018.0
20260903161404 34 173 3.2 4.8 0.00 0.00 0.00 54 1018.1
20260903160905 33 332 1.6 4.8 0.00 0.00 0.00 58 1018.1
20260903155904 34 43 1.6 4.8 0.00 0.00 0.00 55 1018.1
20260903154903 34 46 1.6 4.8 0.00 0.00 0.00 57 1018.1
20260903154404 33 120 0.0 4.8 0.00 0.00 0.00 57 1018.0
20260903153905 33 139 3.2 4.8 0.00 0.00 0.00 57 1018.0
20260903152904 33 16 1.6 4.8 0.00 0.00 0.00 59 1018.0
20260903152405 33 46 3.2 4.8 0.00 0.00 0.00 58 1018.0
20260903151904 33 81 1.6 3.2 0.00 0.00 0.00 56 1018.0
20260903151404 33 30 1.6 3.2 0.00 0.00 0.00 57 1018.1
20260903150404 33 21 1.6 4.8 0.00 0.00 0.00 62 1018.1
20260903145904 32 60 1.6 3.2 0.00 0.00 0.00 62 1018.0
20260903144904 32 91 1.6 3.2 0.00 0.00 0.00 64 1018.0
20260903144404 32 52 1.6 4.8 0.00 0.00 0.00 64 1018.0
20260903143905 32 60 1.6 4.8 0.00 0.00 0.00 63 1018.0
20260903143404 31 102 1.6 4.8 0.00 0.00 0.00 63 1018.0
20260903142904 31 122 3.2 8.0 0.00 0.00 0.00 62 1018.0
20260903142405 31 144 3.2 8.0 0.00 0.00 0.00 62 1018.0
20260903141904 31 152 6.4 9.7 0.00 0.00 0.00 63 1018.0
20260903141402 30 193 1.6 4.8 0.00 0.00 0.00 65 1018.0
20260903140402 30 103 1.6 4.8 0.00 0.00 0.00 70 1018.1
20260903135902 30 194 1.6 8.0 0.00 0.00 0.00 69 1018.1
20260903135403 29 149 3.2 4.8 0.00 0.00 0.00 69 1018.1
20260903134402 28 302 0.0 0.0 0.00 0.00 0.00 75 1018.1
20260903133904 28 349 0.0 0.0 0.00 0.00 0.00 74 1018.1
20260903133402 28 349 0.0 0.0 0.00 0.00 0.00 77 1018.1
20260903132903 27 349 0.0 0.0 0.00 0.00 0.00 78 1018.2
20260903132404 27 349 0.0 0.0 0.00 0.00 0.00 80 1018.2
20260903131902 26 349 0.0 0.0 0.00 0.00 0.00 84 1018.2
20260903131403 26 349 0.0 0.0 0.00 0.00 0.00 86 1018.2
20260903130402 25 349 0.0 0.0 0.00 0.00 0.00 90 1018.2
20260903125902 24 349 0.0 0.0 0.00 0.00 0.00 92 1018.2
20260903125404 23 349 0.0 0.0 0.00 0.00 0.00 93 1018.2
20260903124902 23 349 0.0 0.0 0.00 0.00 0.00 93 1018.2
20260903123904 23 349 0.0 0.0 0.00 0.00 0.00 94 1018.3
20260903123402 22 349 0.0 0.0 0.00 0.00 0.00 94 1018.3
20260903122902 22 349 0.0 0.0 0.00 0.00 0.00 94 1018.2
20260903122404 22 349 0.0 0.0 0.00 0.00 0.00 94 1018.2
20260903121902 22 349 0.0 0.0 0.00 0.00 0.00 93 1018.2
20260903121403 22 349 0.0 0.0 0.00 0.00 0.00 94 1018.2
20260903120903 22 349 0.0 0.0 0.00 0.00 0.00 94 1018.2
20260903120403 22 349 0.0 0.0 0.00 0.00 0.00 94 1018.2
20260903115902 22 349 0.0 0.0 0.00 0.00 0.00 93 1018.1
20260903115403 22 349 0.0 0.0 0.00 0.00 0.00 93 1017.8
20260903114902 22 349 0.0 0.0 0.00 0.00 0.00 93 1017.8
20260903114403 22 349 0.0 0.0 0.00 0.00 0.00 93 1017.8
20260903113903 22 349 0.0 0.0 0.00 0.00 0.00 93 1017.8
20260903113403 22 349 0.0 0.0 0.00 0.00 0.00 93 1017.8
20260903112902 22 349 0.0 0.0 0.00 0.00 0.00 93 1017.7
20260903112403 22 349 0.0 0.0 0.00 0.00 0.00 93 1017.7
20260903111904 22 349 0.0 0.0 0.00 0.00 0.00 93 1017.7
20260903111403 22 349 0.0 0.0 0.00 0.00 0.00 93 1017.5
20260903110403 22 349 0.0 0.0 0.00 0.00 0.00 93 1017.5
20260903105902 22 349 0.0 0.0 0.00 0.00 0.00 92 1017.2
20260903104402 22 349 0.0 0.0 0.00 0.00 0.00 92 1017.2
20260903103903 22 349 0.0 0.0 0.00 0.00 0.00 92 1017.2
20260903102903 22 349 0.0 0.0 0.00 0.00 0.00 92 1017.1
20260903102402 22 349 0.0 0.0 0.00 0.00 0.00 92 1017.1
20260903101904 22 349 0.0 0.0 0.00 0.00 0.00 92 1017.1
20260903101402 22 349 0.0 0.0 0.00 0.00 0.00 92 1017.0
20260903100903 22 349 0.0 0.0 0.00 0.00 0.00 92 1017.0
20260903100405 22 349 0.0 0.0 0.00 0.00 0.00 92 1017.0
20260903095902 22 349 0.0 0.0 0.00 0.00 0.00 92 1017.2
20260903095403 22 349 0.0 0.0 0.00 0.00 0.00 92 1017.2
20260903094904 22 349 0.0 0.0 0.00 0.00 0.00 92 1017.2
20260903094402 22 349 0.0 0.0 0.00 0.00 0.00 92 1017.1
20260903093902 22 349 0.0 0.0 0.00 0.00 0.00 92 1017.1
20260903092903 22 349 0.0 0.0 0.00 0.00 0.00 92 1017.2
20260903092403 22 349 0.0 0.0 0.00 0.00 0.00 92 1017.2
20260903091403 22 349 0.0 0.0 0.00 0.00 0.00 92 1017.1
20260903090903 22 349 0.0 0.0 0.00 0.00 0.00 92 1017.1
20260903090402 22 349 0.0 0.0 0.00 0.00 0.00 92 1017.1
20260903085904 22 349 0.0 0.0 0.00 0.00 0.00 91 1017.2
20260903085402 22 349 0.0 0.0 0.00 0.00 0.00 91 1017.2
20260903084903 22 349 0.0 0.0 0.00 0.00 0.00 91 1017.1
20260903084403 22 349 0.0 0.0 0.00 0.00 0.00 91 1017.2
20260903083903 22 349 0.0 0.0 0.00 0.00 0.00 92 1017.2
20260903083402 22 349 0.0 0.0 0.00 0.00 0.00 91 1017.2
20260903082904 22 349 0.0 0.0 0.00 0.00 0.00 91 1017.2
20260903082403 22 349 0.0 0.0 0.00 0.00 0.00 91 1017.2
20260903081903 22 349 0.0 0.0 0.00 0.00 0.00 91 1017.2
20260903081402 22 349 0.0 0.0 0.00 0.00 0.00 91 1017.0
20260903080904 22 349 0.0 0.0 0.00 0.00 0.00 91 1017.0
20260903080402 22 349 0.0 0.0 0.00 0.00 0.00 91 1017.0
20260903075903 22 349 0.0 0.0 0.00 0.00 0.00 91 1017.1
20260903074902 22 349 0.0 0.0 0.00 0.00 0.00 90 1017.1
20260903074403 22 349 0.0 0.0 0.00 0.00 0.00 90 1016.9
20260903073404 22 349 0.0 0.0 0.00 0.00 0.00 90 1016.9
20260903072902 22 349 0.0 0.0 0.00 0.00 0.00 90 1016.8
20260903072403 22 349 0.0 0.0 0.00 0.00 0.00 90 1016.8
20260903071904 23 349 0.0 0.0 0.00 0.00 0.00 90 1016.8
20260903071402 23 349 0.0 0.0 0.00 0.00 0.00 90 1016.8
20260903070903 23 349 0.0 0.0 0.00 0.00 0.00 90 1016.8
20260903070403 23 349 0.0 0.0 0.00 0.00 0.00 90 1016.8
20260903065404 23 349 0.0 0.0 0.00 0.00 0.00 90 1016.8
20260903064903 23 349 0.0 0.0 0.00 0.00 0.00 90 1016.8
20260903064403 23 349 0.0 0.0 0.00 0.00 0.00 89 1016.9
20260903063903 23 349 0.0 0.0 0.00 0.00 0.00 89 1016.9
20260903063403 23 349 0.0 0.0 0.00 0.00 0.00 89 1016.9
20260903062903 23 349 0.0 0.0 0.00 0.00 0.00 89 1016.9
20260903062405 23 348 0.0 0.0 0.00 0.00 0.00 89 1016.9
20260903061903 23 349 0.0 0.0 0.00 0.00 0.00 89 1016.9
20260903061403 23 349 0.0 0.0 0.00 0.00 0.00 89 1017.0
20260903060902 23 349 0.0 0.0 0.00 0.00 0.00 89 1017.0
20260903055403 23 349 0.0 0.0 0.00 0.00 0.00 88 1017.0
20260903054904 23 349 0.0 0.0 0.00 0.00 0.00 88 1017.0
20260903054403 23 349 0.0 0.0 0.00 0.00 0.00 88 1017.0
20260903053903 23 349 0.0 0.0 0.00 0.00 0.00 88 1017.0
20260903053404 23 349 0.0 0.0 0.00 0.00 0.00 88 1017.0
20260903052903 23 349 0.0 0.0 0.00 0.00 0.00 88 1017.0
20260903052402 23 349 0.0 0.0 0.00 0.00 0.00 88 1017.0
20260903051404 23 349 0.0 0.0 0.00 0.00 0.00 87 1017.0
20260903045904 23 349 0.0 0.0 0.00 0.00 0.00 87 1017.2
20260903045403 23 349 0.0 0.0 0.00 0.00 0.00 86 1017.2
20260903044903 23 349 0.0 0.0 0.00 0.00 0.00 86 1017.2
20260903044403 23 349 0.0 0.0 0.00 0.00 0.00 86 1017.1
20260903043904 23 349 0.0 0.0 0.00 0.00 0.00 86 1017.1
20260903043403 24 349 0.0 0.0 0.00 0.00 0.00 86 1017.1
20260903042903 24 349 0.0 0.0 0.00 0.00 0.00 86 1017.2
20260903042405 24 349 0.0 0.0 0.00 0.00 0.00 85 1017.2
20260903041902 24 349 0.0 0.0 0.00 0.00 0.00 85 1017.1
20260903041403 24 349 0.0 0.0 0.00 0.00 0.00 85 1017.1
20260903040904 24 349 0.0 0.0 0.00 0.00 0.00 85 1017.1
20260903040403 24 349 0.0 0.0 0.00 0.00 0.00 85 1017.1
20260903035903 24 349 0.0 0.0 0.00 0.00 0.00 85 1017.2
20260903034903 24 349 0.0 0.0 0.00 0.00 0.00 84 1017.2
20260903034403 24 349 0.0 0.0 0.00 0.00 0.00 84 1017.3
20260903033904 25 349 0.0 0.0 0.00 0.00 0.00 84 1017.3
20260903033403 25 349 0.0 0.0 0.00 0.00 0.00 83 1017.3
20260903032903 25 349 0.0 0.0 0.00 0.00 0.00 83 1017.3
20260903031903 25 349 0.0 0.0 0.00 0.00 0.00 82 1017.3
20260903031403 25 349 0.0 0.0 0.00 0.00 0.00 82 1017.3
20260903030403 25 349 0.0 0.0 0.00 0.00 0.00 82 1017.4
20260903025903 25 349 0.0 0.0 0.00 0.00 0.00 81 1017.2
20260903025404 25 349 0.0 0.0 0.00 0.00 0.00 81 1017.2
20260903024903 25 349 0.0 0.0 0.00 0.00 0.00 81 1017.2
20260903024404 25 349 0.0 0.0 0.00 0.00 0.00 79 1017.2
20260903023904 25 348 0.0 0.0 0.00 0.00 0.00 79 1017.2
20260903023403 25 349 0.0 0.0 0.00 0.00 0.00 79 1017.2
20260903022903 25 349 0.0 0.0 0.00 0.00 0.00 79 1017.1
20260903022404 25 349 0.0 0.0 0.00 0.00 0.00 79 1017.1
20260903021904 25 349 0.0 0.0 0.00 0.00 0.00 79 1017.1
20260903021403 26 349 0.0 0.0 0.00 0.00 0.00 78 1017.0
20260903020903 26 349 0.0 0.0 0.00 0.00 0.00 78 1017.0
20260903020404 26 349 0.0 0.0 0.00 0.00 0.00 78 1017.0
20260903015904 26 349 0.0 0.0 0.00 0.00 0.00 77 1016.9
20260903015403 26 349 0.0 0.0 0.00 0.00 0.00 77 1016.9
20260903014904 26 349 0.0 0.0 0.00 0.00 0.00 77 1016.9
20260903014403 26 349 0.0 0.0 0.00 0.00 0.00 78 1016.8
20260903013903 26 349 0.0 0.0 0.00 0.00 0.00 76 1016.8
20260903013404 26 349 0.0 0.0 0.00 0.00 0.00 77 1016.8
20260903012403 26 349 0.0 1.6 0.00 0.00 0.00 76 1016.6
20260903011905 26 349 0.0 1.6 0.00 0.00 0.00 75 1016.6